(°C)
(°C)
-5°
-5°
-4°
-3°
-3°
-3°
-4°
СЗ
ССЗ
ССЗ
ССЗ
ССЗ
С
С
(км/ч)
10-15
10-15
10-16
10-16
10-17
10-17
10-18
(мм)
3
0
0
0
0
0
0
(%)
25
0
0
0
0
0
0

Высота солнцестояния

/ 29.2°
sun-icon
UV 1
06:48
18:41
Прибывающая луна (32°)
09:41
19:24

METAR для 55.31°С 61.5°В (USCC)

Время Условия Температура/
Точка росы
Ветер Видимость Погода Облачность Давление Изменить Необработанный
MVFR -1°C / -5°C 30º 4kt >10km Light Showers Snow 3.00mm precipitation Vertical Visibility of 0ft. 1025 No Significant change USCC 280530Z 03002MPS 9999 -SHSN BKN024CB M01/M05 Q1025 R27/000060 NOSIG RMK QFE748
MVFR -1°C / -5°C 30º 4kt 6000m Light Showers Snow 3.00mm precipitation Vertical Visibility of 0ft. 1025 No Significant change USCC 280500Z 03002MPS 6000 -SHSN BKN024CB M01/M05 Q1025 R27/000060 NOSIG RMK QFE748
MVFR -1°C / -5°C 20º 6kt >10km Light Showers Snow 3.00mm precipitation Vertical Visibility of 0ft. 1025 No Significant change USCC 280430Z 02003MPS 9999 -SHSN BKN025CB M01/M05 Q1025 R27/000060 NOSIG RMK QFE748
MVFR -1°C / -4°C 360º 4kt >10km Light Showers Snow 3.00mm precipitation Vertical Visibility of 0ft. 1024 No Significant change USCC 280400Z 36002MPS 9999 -SHSN BKN030CB M01/M04 Q1024 R27/000060 NOSIG RMK QFE748
MVFR -1°C / -4°C 20º 4kt >10km Light Showers Snow 3.00mm precipitation Vertical Visibility of 0ft. 1024 No Significant change USCC 280330Z 02002MPS 9999 -SHSN BKN030CB M01/M04 Q1024 R27/000060 NOSIG RMK QFE748
MVFR -1°C / -4°C 30º 4kt >10km Light Showers Snow 3.00mm precipitation Vertical Visibility of 0ft. 1024 No Significant change USCC 280300Z 03002MPS 9999 -SHSN BKN030CB M01/M04 Q1024 R27/000060 NOSIG RMK QFE748
VFR -1°C / -3°C 10º 4kt >10km Light Showers Snow 3.00mm precipitation Vertical Visibility of 0ft. 1024 No Significant change USCC 280230Z 01002MPS 9999 -SHSN BKN033CB M01/M03 Q1024 R27/000060 NOSIG RMK QFE747
VFR -1°C / -3°C 360º 4kt >10km Light Showers Snow 3.00mm precipitation Vertical Visibility of 0ft. 1023 No Significant change USCC 280200Z 36002MPS 9999 -SHSN BKN040CB M01/M03 Q1023 R27/000060 NOSIG RMK QFE747
VFR -1°C / -3°C 340º 2kt >10km Light Showers Snow 3.00mm precipitation Vertical Visibility of 0ft. 1023 No Significant change USCC 280130Z 34001MPS 9999 -SHSN BKN040CB M01/M03 Q1023 R27/000060 NOSIG RMK QFE747
VFR -1°C / -3°C 350º 4kt >10km Light Showers Snow 3.00mm precipitation Vertical Visibility of 0ft. 1023 No Significant change USCC 280100Z 35002MPS 9999 -SHSN BKN040CB M01/M03 Q1023 R27/000060 NOSIG RMK QFE747
VFR -1°C / -3°C 340º 4kt >10km Light Showers Snow 3.00mm precipitation Vertical Visibility of 0ft. 1023 No Significant change USCC 280030Z 34002MPS 9999 -SHSN BKN040CB M01/M03 Q1023 R27/000060 NOSIG RMK QFE747
VFR -1°C / -3°C 330º 4kt >10km Light Showers Snow 3.00mm precipitation Vertical Visibility of 0ft. 1023 No Significant change USCC 280000Z 33002MPS 9999 -SHSN BKN040CB M01/M03 Q1023 R27/000060 NOSIG RMK QFE747
VFR -1°C / -3°C 330º 6kt >10km Light Showers Snow 3.00mm precipitation Vertical Visibility of 0ft. 1023 No Significant change USCC 272330Z 33003MPS 9999 -SHSN BKN040CB M01/M03 Q1023 R27/000060 NOSIG RMK QFE747
VFR -1°C / -2°C 320º 4kt >10km Light Showers Snow 3.00mm precipitation Vertical Visibility of 0ft. 1023 No Significant change USCC 272300Z 32002MPS 9999 -SHSN BKN040CB M01/M02 Q1023 R27/000060 NOSIG RMK QFE747
VFR -1°C / -3°C 310º 4kt >10km Light Showers Snow 3.00mm precipitation Vertical Visibility of 0ft. 1022 No Significant change USCC 272230Z 31002MPS 9999 -SHSN BKN040CB M01/M03 Q1022 R27/000060 NOSIG RMK QFE747
VFR -1°C / -3°C 300º 4kt >10km - Broken Clouds 4000ft 1022 No Significant change USCC 272130Z 30002MPS 9999 BKN040CB M01/M03 Q1022 R27/000060 NOSIG RMK QFE746
VFR -1°C / -3°C 310º 4kt >10km - Broken Clouds 4000ft 1022 No Significant change USCC 272100Z 31002MPS 9999 BKN040CB M01/M03 Q1022 R27/000060 NOSIG RMK QFE746
VFR -1°C / -3°C 330º 6kt >10km - Broken Clouds 4000ft 1022 No Significant change USCC 272030Z 33003MPS 9999 BKN040CB M01/M03 Q1022 R27/000060 NOSIG RMK QFE746
VFR -1°C / -3°C 330º 6kt >10km Light Showers Snow 3.00mm precipitation Vertical Visibility of 0ft. 1022 No Significant change USCC 272000Z 33003MPS 9999 -SHSN BKN040CB M01/M03 Q1022 R27/000060 NOSIG RMK QFE746
VFR -1°C / -3°C 320º 6kt >10km Light Showers Snow 3.00mm precipitation Vertical Visibility of 0ft. 1022 No Significant change USCC 271930Z 32003MPS 9999 -SHSN BKN040CB M01/M03 Q1022 R27/000060 NOSIG RMK QFE746
VFR -1°C / -3°C 310º 6kt >10km - Broken Clouds 4300ft 1022 No Significant change USCC 271900Z 31003MPS 9999 BKN043CB M01/M03 Q1022 R27/000060 NOSIG RMK QFE746
VFR -1°C / -3°C 300º 6kt >10km - Broken Clouds 4300ft 1022 No Significant change USCC 271830Z 30003MPS 9999 BKN043CB M01/M03 Q1022 R27/000060 NOSIG RMK QFE746
VFR -1°C / -3°C 290º 4kt >10km - Broken Clouds 4000ft 1022 No Significant change USCC 271800Z 29002MPS 9999 BKN040CB M01/M03 Q1022 R27/000060 NOSIG RMK QFE746
VFR -1°C / -3°C 310º 4kt >10km - Broken Clouds 4000ft 1022 No Significant change USCC 271730Z 31002MPS 9999 BKN040CB M01/M03 Q1022 R27/000060 NOSIG RMK QFE746

MVFR

-1°C / -5°C

[Больше]
Ветер 30º 4kt
Видимость >10km
Погода Light Showers Snow 3.00mm precipitation
Облачность Vertical Visibility of 0ft.
Давление 1025
Изменить No Significant change
Необработанный USCC 280530Z 03002MPS 9999 -SHSN BKN024CB M01/M05 Q1025 R27/000060 NOSIG RMK QFE748

MVFR

-1°C / -5°C

[Больше]
Ветер 30º 4kt
Видимость 6000m
Погода Light Showers Snow 3.00mm precipitation
Облачность Vertical Visibility of 0ft.
Давление 1025
Изменить No Significant change
Необработанный USCC 280500Z 03002MPS 6000 -SHSN BKN024CB M01/M05 Q1025 R27/000060 NOSIG RMK QFE748

MVFR

-1°C / -5°C

[Больше]
Ветер 20º 6kt
Видимость >10km
Погода Light Showers Snow 3.00mm precipitation
Облачность Vertical Visibility of 0ft.
Давление 1025
Изменить No Significant change
Необработанный USCC 280430Z 02003MPS 9999 -SHSN BKN025CB M01/M05 Q1025 R27/000060 NOSIG RMK QFE748

MVFR

-1°C / -4°C

[Больше]
Ветер 360º 4kt
Видимость >10km
Погода Light Showers Snow 3.00mm precipitation
Облачность Vertical Visibility of 0ft.
Давление 1024
Изменить No Significant change
Необработанный USCC 280400Z 36002MPS 9999 -SHSN BKN030CB M01/M04 Q1024 R27/000060 NOSIG RMK QFE748

MVFR

-1°C / -4°C

[Больше]
Ветер 20º 4kt
Видимость >10km
Погода Light Showers Snow 3.00mm precipitation
Облачность Vertical Visibility of 0ft.
Давление 1024
Изменить No Significant change
Необработанный USCC 280330Z 02002MPS 9999 -SHSN BKN030CB M01/M04 Q1024 R27/000060 NOSIG RMK QFE748

MVFR

-1°C / -4°C

[Больше]
Ветер 30º 4kt
Видимость >10km
Погода Light Showers Snow 3.00mm precipitation
Облачность Vertical Visibility of 0ft.
Давление 1024
Изменить No Significant change
Необработанный USCC 280300Z 03002MPS 9999 -SHSN BKN030CB M01/M04 Q1024 R27/000060 NOSIG RMK QFE748

VFR

-1°C / -3°C

[Больше]
Ветер 10º 4kt
Видимость >10km
Погода Light Showers Snow 3.00mm precipitation
Облачность Vertical Visibility of 0ft.
Давление 1024
Изменить No Significant change
Необработанный USCC 280230Z 01002MPS 9999 -SHSN BKN033CB M01/M03 Q1024 R27/000060 NOSIG RMK QFE747

VFR

-1°C / -3°C

[Больше]
Ветер 360º 4kt
Видимость >10km
Погода Light Showers Snow 3.00mm precipitation
Облачность Vertical Visibility of 0ft.
Давление 1023
Изменить No Significant change
Необработанный USCC 280200Z 36002MPS 9999 -SHSN BKN040CB M01/M03 Q1023 R27/000060 NOSIG RMK QFE747

VFR

-1°C / -3°C

[Больше]
Ветер 340º 2kt
Видимость >10km
Погода Light Showers Snow 3.00mm precipitation
Облачность Vertical Visibility of 0ft.
Давление 1023
Изменить No Significant change
Необработанный USCC 280130Z 34001MPS 9999 -SHSN BKN040CB M01/M03 Q1023 R27/000060 NOSIG RMK QFE747

VFR

-1°C / -3°C

[Больше]
Ветер 350º 4kt
Видимость >10km
Погода Light Showers Snow 3.00mm precipitation
Облачность Vertical Visibility of 0ft.
Давление 1023
Изменить No Significant change
Необработанный USCC 280100Z 35002MPS 9999 -SHSN BKN040CB M01/M03 Q1023 R27/000060 NOSIG RMK QFE747

VFR

-1°C / -3°C

[Больше]
Ветер 340º 4kt
Видимость >10km
Погода Light Showers Snow 3.00mm precipitation
Облачность Vertical Visibility of 0ft.
Давление 1023
Изменить No Significant change
Необработанный USCC 280030Z 34002MPS 9999 -SHSN BKN040CB M01/M03 Q1023 R27/000060 NOSIG RMK QFE747

VFR

-1°C / -3°C

[Больше]
Ветер 330º 4kt
Видимость >10km
Погода Light Showers Snow 3.00mm precipitation
Облачность Vertical Visibility of 0ft.
Давление 1023
Изменить No Significant change
Необработанный USCC 280000Z 33002MPS 9999 -SHSN BKN040CB M01/M03 Q1023 R27/000060 NOSIG RMK QFE747

VFR

-1°C / -3°C

[Больше]
Ветер 330º 6kt
Видимость >10km
Погода Light Showers Snow 3.00mm precipitation
Облачность Vertical Visibility of 0ft.
Давление 1023
Изменить No Significant change
Необработанный USCC 272330Z 33003MPS 9999 -SHSN BKN040CB M01/M03 Q1023 R27/000060 NOSIG RMK QFE747

VFR

-1°C / -2°C

[Больше]
Ветер 320º 4kt
Видимость >10km
Погода Light Showers Snow 3.00mm precipitation
Облачность Vertical Visibility of 0ft.
Давление 1023
Изменить No Significant change
Необработанный USCC 272300Z 32002MPS 9999 -SHSN BKN040CB M01/M02 Q1023 R27/000060 NOSIG RMK QFE747

VFR

-1°C / -3°C

[Больше]
Ветер 310º 4kt
Видимость >10km
Погода Light Showers Snow 3.00mm precipitation
Облачность Vertical Visibility of 0ft.
Давление 1022
Изменить No Significant change
Необработанный USCC 272230Z 31002MPS 9999 -SHSN BKN040CB M01/M03 Q1022 R27/000060 NOSIG RMK QFE747

VFR

-1°C / -3°C

[Больше]
Ветер 300º 4kt
Видимость >10km
Погода -
Облачность Broken Clouds 4000ft
Давление 1022
Изменить No Significant change
Необработанный USCC 272130Z 30002MPS 9999 BKN040CB M01/M03 Q1022 R27/000060 NOSIG RMK QFE746

VFR

-1°C / -3°C

[Больше]
Ветер 310º 4kt
Видимость >10km
Погода -
Облачность Broken Clouds 4000ft
Давление 1022
Изменить No Significant change
Необработанный USCC 272100Z 31002MPS 9999 BKN040CB M01/M03 Q1022 R27/000060 NOSIG RMK QFE746

VFR

-1°C / -3°C

[Больше]
Ветер 330º 6kt
Видимость >10km
Погода -
Облачность Broken Clouds 4000ft
Давление 1022
Изменить No Significant change
Необработанный USCC 272030Z 33003MPS 9999 BKN040CB M01/M03 Q1022 R27/000060 NOSIG RMK QFE746

VFR

-1°C / -3°C

[Больше]
Ветер 330º 6kt
Видимость >10km
Погода Light Showers Snow 3.00mm precipitation
Облачность Vertical Visibility of 0ft.
Давление 1022
Изменить No Significant change
Необработанный USCC 272000Z 33003MPS 9999 -SHSN BKN040CB M01/M03 Q1022 R27/000060 NOSIG RMK QFE746

VFR

-1°C / -3°C

[Больше]
Ветер 320º 6kt
Видимость >10km
Погода Light Showers Snow 3.00mm precipitation
Облачность Vertical Visibility of 0ft.
Давление 1022
Изменить No Significant change
Необработанный USCC 271930Z 32003MPS 9999 -SHSN BKN040CB M01/M03 Q1022 R27/000060 NOSIG RMK QFE746

VFR

-1°C / -3°C

[Больше]
Ветер 310º 6kt
Видимость >10km
Погода -
Облачность Broken Clouds 4300ft
Давление 1022
Изменить No Significant change
Необработанный USCC 271900Z 31003MPS 9999 BKN043CB M01/M03 Q1022 R27/000060 NOSIG RMK QFE746

VFR

-1°C / -3°C

[Больше]
Ветер 300º 6kt
Видимость >10km
Погода -
Облачность Broken Clouds 4300ft
Давление 1022
Изменить No Significant change
Необработанный USCC 271830Z 30003MPS 9999 BKN043CB M01/M03 Q1022 R27/000060 NOSIG RMK QFE746

VFR

-1°C / -3°C

[Больше]
Ветер 290º 4kt
Видимость >10km
Погода -
Облачность Broken Clouds 4000ft
Давление 1022
Изменить No Significant change
Необработанный USCC 271800Z 29002MPS 9999 BKN040CB M01/M03 Q1022 R27/000060 NOSIG RMK QFE746

VFR

-1°C / -3°C

[Больше]
Ветер 310º 4kt
Видимость >10km
Погода -
Облачность Broken Clouds 4000ft
Давление 1022
Изменить No Significant change
Необработанный USCC 271730Z 31002MPS 9999 BKN040CB M01/M03 Q1022 R27/000060 NOSIG RMK QFE746

TAF для 55.31°С 61.5°В (USCC)

From till


From till Wind 30º 6kt. Gust 19kt. Visibility 6000m. Broken Clouds 1600ft.
Temporarly from till Wind 90º 6kt. Gust 25kt. Light Showers Snow .
Temporarly from till Wind 150º 6kt. Gust 16kt.

Необработанный: TAF USCC 280459Z 2806/2906 03003G10MPS 6000 BKN016CB TEMPO 2806/2818 09003G13MPS -SHSN TEMPO 2818/2906 15003G08MPS

Радарный и сверхкраткосрочный прогноз осадков для 55.31°С 61.5°В

Морось
Незначительные
Умеренные
Сильные
Очень Сильные
Град

Индикатор местности находится на 55.31°С 61.5°В. Анимация показывает радар осадков за последний час, а также прогноз погоды для 1h. Морось или небольшой снег могут быть невидимы для радара. Интенсивность осадков имеет цветовую кодировку - от светло-голубого до оранжевого.

Текущие спутниковые изображения и снимки дождя для 55.31°С 61.5°В

Указатель местности находится на 55.31°С 61.5°В. [Больше]

Спутниковое изображение в реальном времени сочетает в себе видимый свет в дневное время с инфракрасным излучением в ночное время. Ночью изображение получается не темным, так как инфракрасное излучение может обнаружить разницу температур. К сожалению, низкие облака и туман трудно отличить от температуры у поверхности земли и поэтому могут быть почти незаметны ночью. Спутниковые снимки Meteosat для Европы обновляются каждые 5 минут в режиме реального времени.Снимки GOES-16/GOES-17 (Северная и Южная Америка) и Химавари (Азия) обновляются каждые 10 минут.

Копирайт 2022 EUMETSAT / meteoblue. / Копирайт 2022 meteoblue

Обратно к последним данным